• In Netherlands
  • List of Countries
  • For 7 days
  • Water Temperature
  • Satellite Maps
  • Weather Map
  • Weather Widgets
  • user-avatar
    Login

    Hourly Weather Popov Porog

    Today, 19 July, Thursday

    Time Temperature Precipitation Wind Pressure Humidity
    00:00 +17°C° 0 mm 3 mps 754 mmHg 73%
    01:00 +16°C° 0 mm 2 mps 754 mmHg 75%
    02:00 +16°C° 0 mm 2 mps 754 mmHg 77%
    03:00 +16°C° 0 mm 2 mps 754 mmHg 74%
    04:00 +17°C° 0 mm 3 mps 754 mmHg 71%
    05:00 +18°C° 0 mm 3 mps 754 mmHg 68%
    06:00 +19°C° 0 mm 3 mps 754 mmHg 61%
    07:00 +21°C° 0 mm 3 mps 754 mmHg 54%
    08:00 +23°C° 0 mm 4 mps 754 mmHg 47%
    09:00 +25°C° 0 mm 4 mps 754 mmHg 44%
    10:00 +26°C° 0 mm 4 mps 754 mmHg 40%
    11:00 +27°C° 0 mm 5 mps 754 mmHg 36%
    12:00 +28°C° 0 mm 5 mps 753 mmHg 35%
    13:00 +29°C° 0 mm 5 mps 753 mmHg 34%
    14:00 +29°C° 0 mm 5 mps 753 mmHg 33%
    15:00 +29°C° 0 mm 5 mps 753 mmHg 34%
    16:00 +29°C° 0 mm 5 mps 753 mmHg 34%
    17:00 +29°C° 0 mm 5 mps 752 mmHg 35%
    18:00 +27°C° 0 mm 4 mps 752 mmHg 41%
    19:00 +26°C° 0 mm 3 mps 752 mmHg 47%
    20:00 +24°C° 0 mm 3 mps 752 mmHg 53%
    21:00 +22°C° 0 mm 3 mps 752 mmHg 57%
    22:00 +20°C° 0 mm 3 mps 752 mmHg 62%
    23:00 +19°C° 0 mm 3 mps 752 mmHg 66%

    Tomorrow, 20 July, Friday

    Time Temperature Precipitation Wind Pressure Humidity
    00:00 +18°C° 0 mm 2 mps 752 mmHg 68%
    01:00 +18°C° 0 mm 2 mps 752 mmHg 71%
    02:00 +17°C° 0 mm 2 mps 752 mmHg 73%
    03:00 +17°C° 0 mm 2 mps 752 mmHg 71%
    04:00 +18°C° 0 mm 2 mps 752 mmHg 69%
    05:00 +19°C° 0 mm 2 mps 752 mmHg 67%
    06:00 +20°C° 0 mm 3 mps 752 mmHg 62%
    07:00 +22°C° 0 mm 3 mps 752 mmHg 56%
    08:00 +25°C° 0 mm 3 mps 752 mmHg 51%
    09:00 +26°C° 0 mm 3 mps 751 mmHg 47%
    10:00 +27°C° 0 mm 4 mps 751 mmHg 43%
    11:00 +29°C° 0 mm 4 mps 751 mmHg 39%
    12:00 +29°C° 0 mm 4 mps 751 mmHg 38%
    13:00 +30°C° 0 mm 4 mps 750 mmHg 36%
    14:00 +30°C° 0 mm 4 mps 750 mmHg 35%
    15:00 +30°C° 0 mm 4 mps 750 mmHg 36%
    16:00 +29°C° 0 mm 4 mps 749 mmHg 38%
    17:00 +29°C° 0 mm 3 mps 749 mmHg 40%
    18:00 +27°C° 0 mm 3 mps 749 mmHg 45%
    19:00 +26°C° 0 mm 3 mps 749 mmHg 51%
    20:00 +25°C° 0 mm 2 mps 749 mmHg 56%
    21:00 +23°C° 0.1 mm 2 mps 749 mmHg 62%
    22:00 +21°C° 0.1 mm 2 mps 749 mmHg 69%
    23:00 +20°C° 0.1 mm 2 mps 749 mmHg 75%

    Day after tomorrow, 21 July, Saturday

    Time Temperature Precipitation Wind Pressure Humidity
    00:00 +19°C° 0.2 mm 2 mps 748 mmHg 80%
    01:00 +19°C° 0.2 mm 2 mps 748 mmHg 85%
    02:00 +18°C° 0.2 mm 2 mps 748 mmHg 91%
    03:00 +18°C° 0 mm 2 mps 748 mmHg 91%
    04:00 +19°C° 0 mm 3 mps 748 mmHg 91%
    05:00 +19°C° 0 mm 3 mps 747 mmHg 91%
    06:00 +19°C° 0.2 mm 3 mps 747 mmHg 91%
    07:00 +19°C° 0.2 mm 3 mps 747 mmHg 92%
    08:00 +20°C° 0.2 mm 3 mps 747 mmHg 92%
    09:00 +20°C° 0.1 mm 3 mps 747 mmHg 90%
    10:00 +21°C° 0.1 mm 3 mps 747 mmHg 87%
    11:00 +21°C° 0.1 mm 3 mps 747 mmHg 85%
    12:00 +22°C° 0.1 mm 3 mps 746 mmHg 83%
    13:00 +22°C° 0.1 mm 4 mps 746 mmHg 81%
    14:00 +23°C° 0.1 mm 4 mps 746 mmHg 79%
    15:00 +23°C° 0 mm 4 mps 746 mmHg 76%
    16:00 +25°C° 0 mm 4 mps 746 mmHg 73%
    17:00 +25°C° 0 mm 4 mps 746 mmHg 71%
    18:00 +24°C° 0 mm 3 mps 745 mmHg 75%
    19:00 +22°C° 0 mm 3 mps 745 mmHg 79%
    20:00 +23°C° 0 mm 2 mps 745 mmHg 83%
    21:00 +21°C° 0.4 mm 2 mps 745 mmHg 87%
    22:00 +20°C° 0.4 mm 2 mps 745 mmHg 92%
    23:00 +20°C° 0.4 mm 1 mps 745 mmHg 96%

    22 July, Sunday

    Time Temperature Precipitation Wind Pressure Humidity
    00:00 +19°C° 0.3 mm 2 mps 745 mmHg 97%
    01:00 +19°C° 0.3 mm 2 mps 745 mmHg 97%
    02:00 +19°C° 0.3 mm 2 mps 745 mmHg 98%
    03:00 +19°C° 1.3 mm 2 mps 745 mmHg 97%
    04:00 +19°C° 1.3 mm 2 mps 745 mmHg 97%
    05:00 +20°C° 1.3 mm 3 mps 745 mmHg 97%
    06:00 +20°C° 0.5 mm 3 mps 745 mmHg 96%
    07:00 +20°C° 0.5 mm 3 mps 745 mmHg 96%
    08:00 +20°C° 0.5 mm 3 mps 745 mmHg 95%
    09:00 +21°C° 0.1 mm 3 mps 745 mmHg 94%
    10:00 +21°C° 0.1 mm 3 mps 745 mmHg 93%
    11:00 +21°C° 0.1 mm 3 mps 745 mmHg 92%
    12:00 +24°C° 0.1 mm 3 mps 745 mmHg 85%
    13:00 +25°C° 0.1 mm 4 mps 745 mmHg 78%
    14:00 +26°C° 0.1 mm 4 mps 745 mmHg 71%
    15:00 +27°C° 0.2 mm 4 mps 745 mmHg 70%
    16:00 +27°C° 0.2 mm 4 mps 745 mmHg 68%
    17:00 +27°C° 0.2 mm 4 mps 744 mmHg 66%
    18:00 +26°C° 0.6 mm 3 mps 744 mmHg 71%
    19:00 +25°C° 0.6 mm 3 mps 745 mmHg 75%
    20:00 +24°C° 0.6 mm 2 mps 745 mmHg 80%
    21:00 +23°C° 0.5 mm 2 mps 745 mmHg 85%
    22:00 +21°C° 0.5 mm 2 mps 745 mmHg 89%
    23:00 +20°C° 0.5 mm 2 mps 745 mmHg 93%

    23 July, Monday

    Time Temperature Precipitation Wind Pressure Humidity
    00:00 +19°C° 0.1 mm 2 mps 745 mmHg 94%
    01:00 +19°C° 0.1 mm 2 mps 745 mmHg 95%
    02:00 +19°C° 0.1 mm 2 mps 745 mmHg 96%
    03:00 +19°C° 0 mm 3 mps 745 mmHg 95%
    04:00 +19°C° 0 mm 3 mps 745 mmHg 94%
    05:00 +19°C° 0 mm 3 mps 745 mmHg 93%
    06:00 +20°C° 0 mm 3 mps 745 mmHg 91%
    07:00 +21°C° 0 mm 4 mps 745 mmHg 88%
    08:00 +22°C° 0 mm 4 mps 745 mmHg 86%
    09:00 +21°C° 0 mm 4 mps 745 mmHg 85%
    10:00 +21°C° 0 mm 4 mps 745 mmHg 85%
    11:00 +21°C° 0 mm 4 mps 745 mmHg 85%
    12:00 +21°C° 0 mm 4 mps 745 mmHg 85%
    13:00 +21°C° 0 mm 4 mps 745 mmHg 84%
    14:00 +21°C° 0 mm 4 mps 745 mmHg 84%
    15:00 +21°C° 0 mm 4 mps 745 mmHg 83%
    16:00 +21°C° 0 mm 4 mps 745 mmHg 82%
    17:00 +22°C° 0 mm 4 mps 745 mmHg 80%
    18:00 +21°C° 0.1 mm 4 mps 745 mmHg 82%
    19:00 +21°C° 0.1 mm 3 mps 745 mmHg 84%
    20:00 +20°C° 0.1 mm 3 mps 745 mmHg 85%
    21:00 +20°C° 0.2 mm 3 mps 745 mmHg 88%
    22:00 +19°C° 0.2 mm 3 mps 745 mmHg 91%
    23:00 +18°C° 0.2 mm 3 mps 744 mmHg 95%

    24 July, Tuesday

    Time Temperature Precipitation Wind Pressure Humidity
    00:00 +18°C° 0.1 mm 3 mps 744 mmHg 95%
    01:00 +18°C° 0.1 mm 3 mps 744 mmHg 95%
    02:00 +18°C° 0.1 mm 3 mps 744 mmHg 96%
    03:00 +18°C° 0.2 mm 3 mps 744 mmHg 95%
    04:00 +18°C° 0.2 mm 3 mps 744 mmHg 95%
    05:00 +19°C° 0.2 mm 3 mps 744 mmHg 94%
    06:00 +19°C° 0.2 mm 3 mps 744 mmHg 93%
    07:00 +19°C° 0.2 mm 3 mps 744 mmHg 92%
    08:00 +20°C° 0.2 mm 3 mps 744 mmHg 91%
    09:00 +20°C° 0.2 mm 3 mps 744 mmHg 90%
    10:00 +21°C° 0.2 mm 3 mps 745 mmHg 88%
    11:00 +21°C° 0.2 mm 3 mps 745 mmHg 86%
    12:00 +21°C° 0.5 mm 3 mps 745 mmHg 86%
    13:00 +21°C° 0.5 mm 3 mps 745 mmHg 86%
    14:00 +21°C° 0.5 mm 3 mps 745 mmHg 86%
    15:00 +21°C° 0.5 mm 3 mps 745 mmHg 86%
    16:00 +21°C° 0.5 mm 3 mps 745 mmHg 87%
    17:00 +21°C° 0.5 mm 3 mps 745 mmHg 87%
    18:00 +21°C° 1.1 mm 2 mps 745 mmHg 90%
    19:00 +20°C° 1.1 mm 2 mps 745 mmHg 93%
    20:00 +19°C° 1.1 mm 2 mps 745 mmHg 96%
    21:00 +19°C° 1.2 mm 2 mps 745 mmHg 96%
    22:00 +18°C° 1.2 mm 2 mps 745 mmHg 97%
    23:00 +18°C° 1.2 mm 2 mps 745 mmHg 98%
    Show more